CDT,Max TemperatureF,Mean TemperatureF,Min TemperatureF,Max Dew PointF,MeanDew PointF,Min DewpointF,Max Humidity, Mean Humidity, Min Humidity, Max Sea Level PressureIn, Mean Sea Level PressureIn, Min Sea Level PressureIn, Max VisibilityMiles, Mean VisibilityMiles, Min VisibilityMiles, Max Wind SpeedMPH, Mean Wind SpeedMPH, Max Gust SpeedMPH,PrecipitationIn, CloudCover, Events, WindDirDegrees
2013-4-1,48,38,28,36,22,10,81,53,39,30.30,30.19,29.94,10,10,10,26,14,30,0.00,6,,58
2013-4-2,44,40,35,28,22,19,70,51,37,30.27,30.23,30.19,10,10,10,9,5,,0.00,8,,123
2013-4-3,44,38,33,30,28,23,81,65,46,30.31,30.25,30.21,10,10,10,16,5,20,0.00,8,,154
2013-4-4,62,44,26,37,32,25,93,66,34,30.23,30.14,30.07,10,10,5,9,5,,0.00,2,,212
2013-4-5,71,52,32,43,36,28,93,59,25,30.11,29.91,29.66,10,10,8,34,12,44,0.00,0,,182
2013-4-6,73,60,46,43,38,34,76,48,25,29.84,29.75,29.60,10,10,10,24,14,30,0.00,0,,312
2013-4-7,77,62,48,57,44,36,94,57,25,29.84,29.73,29.56,10,10,5,26,9,34,0.13,2,Thunderstorm,153
2013-4-8,73,62,51,61,57,48,100,84,57,29.66,29.59,29.48,10,6,0,23,9,29,0.00,7,,143
2013-4-9,66,45,24,59,35,18,93,84,74,30.02,29.75,29.44,10,8,2,30,22,40,0.01,8,Thunderstorm,341
2013-4-10,30,26,23,25,21,18,86,77,69,30.04,29.99,29.91,10,10,4,24,19,32,0.00,8,,330
2013-4-11,51,37,23,28,23,18,80,63,33,29.95,29.80,29.70,10,10,10,22,13,28,0.05,1,,320
2013-4-12,59,41,23,34,27,19,86,60,34,30.04,29.94,29.86,10,10,10,18,8,17,0.00,2,,334
2013-4-13,69,50,32,46,38,27,87,60,40,30.03,29.77,29.41,10,10,10,29,9,38,0.00,2,,163
2013-4-14,64,50,37,43,30,16,67,38,16,29.76,29.52,29.30,10,10,10,33,23,44,0.00,0,,304
2013-4-15,53,42,30,27,24,21,70,48,30,29.96,29.86,29.72,10,10,10,17,8,24,0.00,4,,30
2013-4-16,46,40,33,28,26,23,75,55,43,30.13,30.05,29.96,10,10,10,23,15,28,0.00,7,,61
2013-4-17,41,37,32,36,34,28,93,86,61,30.02,29.89,29.80,10,7,0,29,14,36,0.20,8,Thunderstorm,21
2013-4-18,37,32,28,28,24,21,87,72,52,30.09,29.98,29.87,10,9,3,30,22,38,0.01,7,,329
2013-4-19,60,42,24,32,26,19,80,56,31,30.07,30.03,29.99,10,10,10,23,12,30,0.00,1,,317
2013-4-20,64,47,30,39,33,27,87,61,34,30.07,29.99,29.91,10,10,10,29,12,32,0.00,1,,115
2013-4-21,71,55,39,45,36,30,76,52,27,30.07,30.02,29.97,10,10,8,20,11,24,0.00,0,,179
2013-4-22,57,44,30,50,41,27,88,79,67,30.18,29.99,29.88,10,10,5,36,14,43,0.01,7,Thunderstorm,116
2013-4-23,35,30,26,27,23,19,93,77,60,30.25,30.21,30.15,10,7,1,25,18,34,0.05,7,,349
2013-4-24,62,42,21,34,24,16,93,57,22,30.25,30.20,30.12,10,10,10,22,7,32,0.01,0,,279
2013-4-25,71,50,28,36,28,23,93,48,20,30.26,30.14,29.99,10,10,10,37,9,40,0.00,0,,194
2013-4-26,66,57,48,52,45,34,87,68,41,30.18,30.06,29.99,10,10,8,26,12,34,0.02,5,,166
2013-4-27,71,60,48,50,46,39,93,72,31,30.18,30.09,29.97,10,8,0,13,3,,0.00,4,,120
2013-4-28,89,68,46,50,42,34,88,51,14,29.98,29.82,29.68,10,10,9,17,9,25,0.00,0,,211
2013-4-29,89,66,44,50,43,36,81,48,18,29.78,29.68,29.51,10,10,10,17,8,24,0.00,0,,268
2013-4-30,80,70,59,55,51,41,73,52,32,29.73,29.62,29.56,10,10,10,22,13,26,0.00,0,,136